Powrót do katalogu

STARLINK-3643

AktywnyŁącznośćVLEO
NORAD 51992·PAYLOAD·🇺🇸 United States

Wystrzelony Mar 9, 2022 z Cape Canaveral Space Force Station

Loading…

Następne Przeloty (najbliższe 24 godziny)

TLE

ŚwieżeSource: CelesTrak SupGP

Epoka: Sep 14, 2026, 22:01 UTC

1 51992C 22025AN  26257.91784722  .00031563  00000+0  93259-3 0  2574
2 51992  53.1573 235.7369 0001369  92.5443 246.1793 15.34372449    18

Śledź STARLINK-3643 w czasie rzeczywistym z AllMySat

Download on the App Store